,,Stat6,,Stat2,,Stat8,,Stat9,,Stat10,,Wind1,,Wind1,
time,status,PA1M_AVG,status,PR1M_SUM,status,RH1M_AVG,status,SR1M_AVG,status,TA1M_AVG,status,W1dAve1m,status,W1sAve1m,
2004-12-04, 00:00:00,VALID,919.761,VALID,0,VALID,98.8622,VALID,-0.0679233,VALID,20.0664,VALID,13,VALID,0.373402,
2004-12-04, 00:01:00,VALID,919.777,VALID,0,VALID,98.9118,VALID,-0.0169808,VALID,20.0796,VALID,11,VALID,0.226758,
2004-12-04, 00:02:00,VALID,919.766,VALID,0,VALID,98.9079,VALID,-0.0339617,VALID,20.0826,VALID,11,VALID,0.0403646,
2004-12-04, 00:03:00,VALID,919.749,VALID,0,VALID,98.9792,VALID,-0.0679233,VALID,20.0888,VALID,11,VALID,0,
2004-12-04, 00:04:00,VALID,919.734,VALID,0,VALID,98.8774,VALID,-0.0509425,VALID,20.0925,VALID,11,VALID,0.141387,
2004-12-04, 00:05:00,VALID,919.724,VALID,0,VALID,98.7541,VALID,-0.0339617,VALID,20.0694,VALID,11,VALID,0.0221657,
2004-12-04, 00:06:00,VALID,919.735,VALID,0,VALID,98.9944,VALID,-0.0679233,VALID,20.096,VALID,11,VALID,0.0171875,
2004-12-04, 00:07:00,VALID,919.723,VALID,0,VALID,98.8215,VALID,-0.0679233,VALID,20.1027,VALID,11,VALID,0.157813,
2004-12-04, 00:08:00,VALID,919.712,VALID,0,VALID,98.8698,VALID,-0.0849042,VALID,20.1092,VALID,11,VALID,0.0600229,
2004-12-04, 00:09:00,VALID,919.704,VALID,0.2,VALID,98.8177,VALID,-0.0509425,VALID,20.1218,VALID,11,VALID,0,
2004-12-04, 00:10:00,VALID,919.704,VALID,0,VALID,98.7388,VALID,-0.0509425,VALID,20.1186,VALID,11,VALID,0.0697798,
2004-12-04, 00:11:00,VALID,919.718,VALID,0,VALID,98.7973,VALID,-0.0509425,VALID,20.1054,VALID,11,VALID,0.0928416,
2004-12-04, 00:12:00,VALID,919.721,VALID,0,VALID,98.7668,VALID,-0.0849042,VALID,20.1089,VALID,11,VALID,0,
2004-12-04, 00:13:00,VALID,919.712,VALID,0,VALID,98.7388,VALID,-0.0509425,VALID,20.1017,VALID,11,VALID,0.114281,
2004-12-04, 00:14:00,VALID,919.695,VALID,0,VALID,98.6943,VALID,-0.0509425,VALID,20.1117,VALID,11,VALID,0.208891,
2004-12-04, 00:15:00,VALID,919.692,VALID,0,VALID,98.8927,VALID,-0.0679233,VALID,20.1509,VALID,11,VALID,0.268924,
2004-12-04, 00:16:00,VALID,919.691,VALID,0,VALID,99.119,VALID,-0.0679233,VALID,20.177,VALID,11,VALID,0.274503,
2004-12-04, 00:17:00,VALID,919.683,VALID,0,VALID,99.1381,VALID,0.0169808,VALID,20.1889,VALID,19,VALID,0.437881,
2004-12-04, 00:18:00,VALID,919.677,VALID,0,VALID,98.8355,VALID,0.101885,VALID,20.1519,VALID,33,VALID,0.390807,
2004-12-04, 00:19:00,VALID,919.684,VALID,0,VALID,98.7973,VALID,0.0849042,VALID,20.1489,VALID,15,VALID,0.120908,
2004-12-04, 00:20:00,VALID,919.68,VALID,0,VALID,98.791,VALID,0.0849042,VALID,20.1196,VALID,359,VALID,0,
2004-12-04, 00:21:00,VALID,919.681,VALID,0.2,VALID,98.6791,VALID,0.0509425,VALID,20.0999,VALID,359,VALID,0,
2004-12-04, 00:22:00,VALID,919.673,VALID,0,VALID,98.6816,VALID,0.0509425,VALID,20.1007,VALID,359,VALID,0.350991,
2004-12-04, 00:23:00,VALID,919.667,VALID,0,VALID,98.5939,VALID,0.0679233,VALID,20.0754,VALID,276,VALID,0.386186,
2004-12-04, 00:24:00,VALID,919.637,VALID,0,VALID,98.6282,VALID,0.0509425,VALID,20.0624,VALID,223,VALID,0.129207,
2004-12-04, 00:25:00,VALID,919.619,VALID,0,VALID,98.7108,VALID,0.0509425,VALID,20.046,VALID,223,VALID,0,
2004-12-04, 00:26:00,VALID,919.582,VALID,0,VALID,98.7732,VALID,0.0169808,VALID,20.0361,VALID,223,VALID,0,
2004-12-04, 00:27:00,VALID,919.568,VALID,0,VALID,98.7795,VALID,0.0679233,VALID,20.0262,VALID,223,VALID,0,
2004-12-04, 00:28:00,VALID,919.534,VALID,0,VALID,98.9359,VALID,0.0679233,VALID,20.0428,VALID,223,VALID,0.0560213,
2004-12-04, 00:29:00,VALID,919.524,VALID,0,VALID,99.2233,VALID,0.0509425,VALID,20.0555,VALID,223,VALID,0.146839,
2004-12-04, 00:30:00,VALID,919.497,VALID,0,VALID,99.4242,VALID,0.0509425,VALID,20.0816,VALID,223,VALID,0.0206473,
2004-12-04, 00:31:00,VALID,919.483,VALID,0,VALID,99.2627,VALID,0.0509425,VALID,20.0681,VALID,223,VALID,0.147294,
2004-12-04, 00:32:00,VALID,919.477,VALID,0,VALID,98.8533,VALID,0,VALID,20.0234,VALID,219,VALID,0.403274,
2004-12-04, 00:33:00,VALID,919.472,VALID,0,VALID,98.7948,VALID,-0.0339617,VALID,20.0175,VALID,215,VALID,0.143102,
2004-12-04, 00:34:00,VALID,919.466,VALID,0,VALID,98.8393,VALID,-0.0169808,VALID,20.0252,VALID,210,VALID,0.375391,
2004-12-04, 00:35:00,VALID,919.464,VALID,0,VALID,98.8533,VALID,-0.0339617,VALID,20.0155,VALID,190,VALID,0.325,
2004-12-04, 00:36:00,VALID,919.46,VALID,0,VALID,98.9067,VALID,-0.0169808,VALID,19.9892,VALID,186,VALID,0.217862,
2004-12-04, 00:37:00,VALID,919.482,VALID,0,VALID,99.0364,VALID,-0.0509425,VALID,19.9864,VALID,186,VALID,0,
2004-12-04, 00:38:00,VALID,919.496,VALID,0,VALID,99.2653,VALID,-0.0169808,VALID,19.9852,VALID,186,VALID,0.0550509,
2004-12-04, 00:39:00,VALID,919.515,VALID,0,VALID,99.4827,VALID,-0.0509425,VALID,20.0083,VALID,186,VALID,0.147485,
2004-12-04, 00:40:00,VALID,919.51,VALID,0.2,VALID,99.4878,VALID,-0.0849042,VALID,20.0282,VALID,187,VALID,0.299893,
2004-12-04, 00:41:00,VALID,919.523,VALID,0,VALID,99.2653,VALID,-0.0679233,VALID,19.9929,VALID,188,VALID,0.193309,
2004-12-04, 00:42:00,VALID,919.51,VALID,0,VALID,99.2831,VALID,-0.0509425,VALID,19.9705,VALID,188,VALID,0,
2004-12-04, 00:43:00,VALID,919.516,VALID,0,VALID,99.4026,VALID,-0.101885,VALID,19.9574,VALID,188,VALID,0,
2004-12-04, 00:44:00,VALID,919.51,VALID,0,VALID,99.4458,VALID,-0.101885,VALID,19.9606,VALID,188,VALID,0,
2004-12-04, 00:45:00,VALID,919.499,VALID,0,VALID,99.3924,VALID,-0.0679233,VALID,19.938,VALID,188,VALID,0,
2004-12-04, 00:46:00,VALID,919.499,VALID,0,VALID,99.4026,VALID,-0.0509425,VALID,19.9377,VALID,188,VALID,0,
2004-12-04, 00:47:00,VALID,919.488,VALID,0,VALID,99.4929,VALID,-0.0679233,VALID,19.931,VALID,188,VALID,0,
2004-12-04, 00:48:00,VALID,919.458,VALID,0,VALID,99.5539,VALID,-0.0339617,VALID,19.9248,VALID,188,VALID,0,
2004-12-04, 00:49:00,VALID,919.451,VALID,0,VALID,99.6582,VALID,-0.0509425,VALID,19.9283,VALID,188,VALID,0,
2004-12-04, 00:50:00,VALID,919.43,VALID,0,VALID,99.8744,VALID,-0.0339617,VALID,19.9507,VALID,188,VALID,0,
2004-12-04, 00:51:00,VALID,919.414,VALID,0,VALID,99.9718,VALID,-0.0679233,VALID,19.9668,VALID,188,VALID,0,
2004-12-04, 00:52:00,VALID,919.381,VALID,0,VALID,100,VALID,-0.0169808,VALID,19.9598,VALID,188,VALID,0,
2004-12-04, 00:53:00,VALID,919.354,VALID,0,VALID,100,VALID,-0.0679233,VALID,19.983,VALID,188,VALID,0,
2004-12-04, 00:54:00,VALID,919.341,VALID,0,VALID,100,VALID,-0.0169808,VALID,19.973,VALID,188,VALID,0,
2004-12-04, 00:55:00,VALID,919.317,VALID,0.2,VALID,100,VALID,-0.0679233,VALID,19.9827,VALID,188,VALID,0,
2004-12-04, 00:56:00,VALID,919.293,VALID,0,VALID,100,VALID,-0.0509425,VALID,19.9932,VALID,188,VALID,0,
2004-12-04, 00:57:00,VALID,919.251,VALID,0,VALID,100,VALID,-0.0679233,VALID,19.9961,VALID,188,VALID,0.0104167,
2004-12-04, 00:58:00,VALID,919.224,VALID,0,VALID,100,VALID,0,VALID,19.983,VALID,188,VALID,0.015625,
2004-12-04, 00:59:00,VALID,919.191,VALID,0,VALID,100,VALID,-0.0169808,VALID,20.0023,VALID,188,VALID,0.0497332,
2004-12-04, 01:00:00,VALID,919.163,VALID,0,VALID,100,VALID,-0.101885,VALID,20.0088,VALID,188,VALID,0.136209,
2004-12-04, 01:01:00,VALID,919.133,VALID,0,VALID,100,VALID,-0.0339617,VALID,19.9926,VALID,188,VALID,0.134266,
2004-12-04, 01:02:00,VALID,919.117,VALID,0,VALID,100,VALID,-0.0339617,VALID,19.9666,VALID,188,VALID,0,
2004-12-04, 01:03:00,VALID,919.113,VALID,0,VALID,100,VALID,-0.0509425,VALID,19.9601,VALID,188,VALID,0.000976563,
2004-12-04, 01:04:00,VALID,919.082,VALID,0,VALID,100,VALID,-0.0679233,VALID,19.9609,VALID,188,VALID,0.0101902,
2004-12-04, 01:05:00,VALID,919.064,VALID,0,VALID,100,VALID,-0.0339617,VALID,19.9609,VALID,188,VALID,0.0406605,
2004-12-04, 01:06:00,VALID,919.057,VALID,0,VALID,100,VALID,-0.0509425,VALID,19.9571,VALID,188,VALID,0,
2004-12-04, 01:07:00,VALID,919.035,VALID,0,VALID,100,VALID,-0.0339617,VALID,19.9571,VALID,188,VALID,0.0110828,
2004-12-04, 01:08:00,VALID,919.024,VALID,0,VALID,100,VALID,-0.0509425,VALID,19.9474,VALID,188,VALID,0.211979,
2004-12-04, 01:09:00,VALID,919.023,VALID,0,VALID,100,VALID,-0.0509425,VALID,19.9208,VALID,188,VALID,0.197743,
2004-12-04, 01:10:00,VALID,919.01,VALID,0,VALID,100,VALID,-0.0679233,VALID,19.9176,VALID,188,VALID,0.217988,
2004-12-04, 01:11:00,VALID,919.002,VALID,0,VALID,100,VALID,-0.0679233,VALID,19.9412,VALID,188,VALID,0.210352,
2004-12-04, 01:12:00,VALID,918.993,VALID,0,VALID,100,VALID,-0.0849042,VALID,19.931,VALID,188,VALID,0.00581395,
2004-12-04, 01:13:00,VALID,918.975,VALID,0,VALID,100,VALID,-0.101885,VALID,19.9218,VALID,188,VALID,0,
2004-12-04, 01:14:00,VALID,918.955,VALID,0,VALID,100,VALID,-0.0679233,VALID,19.896,VALID,188,VALID,0,
2004-12-04, 01:15:00,VALID,918.945,VALID,0,VALID,100,VALID,-0.0509425,VALID,19.8861,VALID,188,VALID,0,
2004-12-04, 01:16:00,VALID,918.933,VALID,0,VALID,100,VALID,-0.0339617,VALID,19.9025,VALID,188,VALID,0.186719,
2004-12-04, 01:17:00,VALID,918.93,VALID,0,VALID,100,VALID,-0.0169808,VALID,19.8958,VALID,188,VALID,0.241257,
2004-12-04, 01:18:00,VALID,918.934,VALID,0,VALID,100,VALID,-0.0679233,VALID,19.8992,VALID,188,VALID,0.108817,
2004-12-04, 01:19:00,VALID,918.935,VALID,0,VALID,100,VALID,-0.0169808,VALID,19.9119,VALID,188,VALID,0,
2004-12-04, 01:20:00,VALID,918.947,VALID,0,VALID,100,VALID,-0.0679233,VALID,19.9151,VALID,188,VALID,0,
2004-12-04, 01:21:00,VALID,918.943,VALID,0,VALID,100,VALID,-0.0849042,VALID,19.9251,VALID,188,VALID,0,
2004-12-04, 01:22:00,VALID,918.955,VALID,0,VALID,100,VALID,-0.0679233,VALID,19.9315,VALID,188,VALID,0,
2004-12-04, 01:23:00,VALID,918.937,VALID,0,VALID,100,VALID,-0.101885,VALID,19.9512,VALID,188,VALID,0,
2004-12-04, 01:24:00,VALID,918.913,VALID,0,VALID,100,VALID,-0.101885,VALID,19.9474,VALID,188,VALID,0.00981571,
2004-12-04, 01:25:00,VALID,918.903,VALID,0,VALID,100,VALID,-0.101885,VALID,19.9479,VALID,188,VALID,0.0482422,
2004-12-04, 01:26:00,VALID,918.899,VALID,0,VALID,100,VALID,-0.0849042,VALID,19.9477,VALID,188,VALID,0,
2004-12-04, 01:27:00,VALID,918.896,VALID,0,VALID,100,VALID,-0.0849042,VALID,19.9703,VALID,188,VALID,0,
2004-12-04, 01:28:00,VALID,918.911,VALID,0,VALID,100,VALID,-0.0509425,VALID,19.9733,VALID,188,VALID,0,
2004-12-04, 01:29:00,VALID,918.888,VALID,0,VALID,100,VALID,-0.0849042,VALID,19.9703,VALID,188,VALID,0,
2004-12-04, 01:30:00,VALID,918.871,VALID,0,VALID,100,VALID,-0.0679233,VALID,19.9698,VALID,188,VALID,0,
2004-12-04, 01:31:00,VALID,918.852,VALID,0,VALID,100,VALID,-0.0849042,VALID,19.9348,VALID,188,VALID,0,
2004-12-04, 01:32:00,VALID,918.838,VALID,0,VALID,100,VALID,-0.0169808,VALID,19.9333,VALID,188,VALID,0,
2004-12-04, 01:33:00,VALID,918.823,VALID,0,VALID,100,VALID,0.0679233,VALID,19.9233,VALID,188,VALID,0.3125,
2004-12-04, 01:34:00,VALID,918.78,VALID,0,VALID,100,VALID,0,VALID,19.93,VALID,187,VALID,0.230469,
2004-12-04, 01:35:00,VALID,918.762,VALID,0,VALID,100,VALID,0.0339617,VALID,19.937,VALID,187,VALID,0.113991,
2004-12-04, 01:36:00,VALID,918.747,VALID,0,VALID,100,VALID,0,VALID,19.9273,VALID,185,VALID,0.238104,
2004-12-04, 01:37:00,VALID,918.74,VALID,0,VALID,99.9753,VALID,0.0169808,VALID,19.9077,VALID,185,VALID,0.0838068,
2004-12-04, 01:38:00,VALID,918.729,VALID,0,VALID,99.9278,VALID,0.0169808,VALID,19.8913,VALID,185,VALID,0,
2004-12-04, 01:39:00,VALID,918.733,VALID,0,VALID,99.9443,VALID,0,VALID,19.8945,VALID,185,VALID,0,
2004-12-04, 01:40:00,VALID,918.718,VALID,0,VALID,99.9934,VALID,0.0679233,VALID,19.8878,VALID,185,VALID,0,
2004-12-04, 01:41:00,VALID,918.688,VALID,0,VALID,100,VALID,0.0339617,VALID,19.901,VALID,185,VALID,0,
2004-12-04, 01:42:00,VALID,918.657,VALID,0,VALID,99.9842,VALID,0,VALID,19.8945,VALID,185,VALID,0,
2004-12-04, 01:43:00,VALID,918.63,VALID,0,VALID,99.8769,VALID,0.0339617,VALID,19.8784,VALID,185,VALID,0,
2004-12-04, 01:44:00,VALID,918.593,VALID,0,VALID,99.8375,VALID,0.0169808,VALID,19.8654,VALID,185,VALID,0,
2004-12-04, 01:45:00,VALID,918.572,VALID,0,VALID,99.8655,VALID,0,VALID,19.8754,VALID,185,VALID,0,
2004-12-04, 01:46:00,VALID,918.556,VALID,0,VALID,99.8845,VALID,0.0169808,VALID,19.8754,VALID,185,VALID,0,
2004-12-04, 01:47:00,VALID,918.536,VALID,0,VALID,99.9647,VALID,-0.0339617,VALID,19.8697,VALID,185,VALID,0,
2004-12-04, 01:48:00,VALID,918.498,VALID,0,VALID,99.8146,VALID,-0.0679233,VALID,19.8406,VALID,185,VALID,0.26029,
2004-12-04, 01:49:00,VALID,918.466,VALID,0,VALID,99.7383,VALID,-0.0849042,VALID,19.8282,VALID,99,VALID,0.396577,
2004-12-04, 01:50:00,VALID,918.444,VALID,0,VALID,99.7904,VALID,-0.0679233,VALID,19.8056,VALID,59,VALID,0.396577,
2004-12-04, 01:51:00,VALID,918.44,VALID,0,VALID,99.9201,VALID,-0.0849042,VALID,19.8185,VALID,58,VALID,0.305233,
2004-12-04, 01:52:00,VALID,918.439,VALID,0,VALID,99.9545,VALID,-0.0849042,VALID,19.8153,VALID,58,VALID,0.262195,
2004-12-04, 01:53:00,VALID,918.426,VALID,0,VALID,99.9868,VALID,-0.0849042,VALID,19.8187,VALID,58,VALID,0.177257,
2004-12-04, 01:54:00,VALID,918.436,VALID,0,VALID,100,VALID,-0.0679233,VALID,19.8473,VALID,58,VALID,0.186047,
2004-12-04, 01:55:00,VALID,918.434,VALID,0,VALID,100,VALID,-0.0849042,VALID,19.8413,VALID,42,VALID,0.342226,
2004-12-04, 01:56:00,VALID,918.419,VALID,0,VALID,99.9804,VALID,-0.101885,VALID,19.819,VALID,9,VALID,0.392113,
2004-12-04, 01:57:00,VALID,918.4,VALID,0,VALID,99.924,VALID,-0.0849042,VALID,19.7827,VALID,360,VALID,0.346591,
2004-12-04, 01:58:01,VALID,918.391,VALID,0,VALID,99.984,VALID,-0.101885,VALID,19.7765,VALID,360,VALID,0.181641,
2004-12-04, 01:59:00,VALID,918.38,VALID,0,VALID,100,VALID,-0.0509425,VALID,19.78,VALID,360,VALID,0.253089,
2004-12-04, 02:00:00,VALID,918.369,VALID,0,VALID,100,VALID,-0.0849042,VALID,19.7832,VALID,360,VALID,0,
2004-12-04, 02:01:00,VALID,918.371,VALID,0,VALID,100,VALID,-0.0849042,VALID,19.776,VALID,360,VALID,0,
2004-12-04, 02:02:00,VALID,918.356,VALID,0,VALID,100,VALID,-0.0679233,VALID,19.7765,VALID,360,VALID,0,
2004-12-04, 02:03:00,VALID,918.366,VALID,0,VALID,100,VALID,-0.0339617,VALID,19.773,VALID,360,VALID,0.211682,
2004-12-04, 02:04:00,VALID,918.375,VALID,0,VALID,100,VALID,-0.0679233,VALID,19.7507,VALID,360,VALID,0.400985,
2004-12-04, 02:05:00,VALID,918.393,VALID,0,VALID,100,VALID,-0.0849042,VALID,19.741,VALID,360,VALID,0.319712,
2004-12-04, 02:06:00,VALID,918.408,VALID,0,VALID,100,VALID,-0.0509425,VALID,19.7472,VALID,360,VALID,0.532422,
2004-12-04, 02:07:00,VALID,918.409,VALID,0,VALID,100,VALID,-0.0679233,VALID,19.7862,VALID,13,VALID,0.767223,
2004-12-04, 02:08:00,VALID,918.406,VALID,0,VALID,100,VALID,-0.0679233,VALID,19.8215,VALID,20,VALID,0.834302,
2004-12-04, 02:09:00,VALID,918.416,VALID,0,VALID,100,VALID,-0.0339617,VALID,19.8247,VALID,15,VALID,0.472049,
2004-12-04, 02:10:00,VALID,918.424,VALID,0,VALID,100,VALID,-0.0509425,VALID,19.8113,VALID,8,VALID,0.03125,
2004-12-04, 02:11:00,VALID,918.438,VALID,0,VALID,100,VALID,-0.0679233,VALID,19.815,VALID,8,VALID,0.0464939,
2004-12-04, 02:12:00,VALID,918.443,VALID,0,VALID,100,VALID,-0.0169808,VALID,19.8021,VALID,8,VALID,0.0459223,
2004-12-04, 02:13:00,VALID,918.424,VALID,0,VALID,100,VALID,-0.0339617,VALID,19.8056,VALID,8,VALID,0.227307,
2004-12-04, 02:14:00,VALID,918.413,VALID,0,VALID,100,VALID,-0.0509425,VALID,19.8279,VALID,8,VALID,0.0874256,
2004-12-04, 02:15:00,VALID,918.388,VALID,0,VALID,100,VALID,-0.0509425,VALID,19.8441,VALID,8,VALID,0.425604,
2004-12-04, 02:16:00,VALID,918.376,VALID,0,VALID,100,VALID,-0.0849042,VALID,19.8575,VALID,10,VALID,0.261102,
2004-12-04, 02:17:00,VALID,918.37,VALID,0,VALID,100,VALID,-0.101885,VALID,19.8734,VALID,12,VALID,0.473514,
2004-12-04, 02:18:01,VALID,918.373,VALID,0,VALID,100,VALID,-0.0509425,VALID,19.8572,VALID,5,VALID,0.683061,
2004-12-04, 02:19:00,VALID,918.385,VALID,0,VALID,100,VALID,-0.0849042,VALID,19.8476,VALID,355,VALID,0.113372,
2004-12-04, 02:20:00,VALID,918.398,VALID,0,VALID,100,VALID,-0.0509425,VALID,19.8309,VALID,355,VALID,0.197443,
2004-12-04, 02:21:00,VALID,918.391,VALID,0,VALID,100,VALID,-0.0679233,VALID,19.8312,VALID,355,VALID,0.270139,
2004-12-04, 02:22:00,VALID,918.404,VALID,0,VALID,100,VALID,-0.0339617,VALID,19.8443,VALID,359,VALID,0.273438,
2004-12-04, 02:23:01,VALID,918.404,VALID,0,VALID,100,VALID,-0.0339617,VALID,19.8406,VALID,6,VALID,0.0105378,
2004-12-04, 02:24:00,VALID,918.411,VALID,0,VALID,100,VALID,-0.0509425,VALID,19.8443,VALID,5,VALID,0.062128,
2004-12-04, 02:25:01,VALID,918.408,VALID,0,VALID,100,VALID,-0.0169808,VALID,19.8478,VALID,6,VALID,0,
2004-12-04, 02:26:01,VALID,918.409,VALID,0,VALID,100,VALID,-0.0509425,VALID,19.8468,VALID,6,VALID,0.148251,
2004-12-04, 02:27:00,VALID,918.415,VALID,0,VALID,100,VALID,-0.0339617,VALID,19.8602,VALID,5,VALID,0.303234,
2004-12-04, 02:28:00,VALID,918.424,VALID,0,VALID,100,VALID,-0.0339617,VALID,19.8602,VALID,5,VALID,0.0605469,
2004-12-04, 02:29:00,VALID,918.441,VALID,0,VALID,100,VALID,-0.0169808,VALID,19.8562,VALID,5,VALID,0.153706,
2004-12-04, 02:30:00,VALID,918.446,VALID,0,VALID,100,VALID,-0.0509425,VALID,19.8662,VALID,5,VALID,0,
2004-12-04, 02:31:00,VALID,918.462,VALID,0,VALID,100,VALID,-0.0509425,VALID,19.8702,VALID,5,VALID,0.0993823,
2004-12-04, 02:32:01,VALID,918.47,VALID,0,VALID,100,VALID,-0.0339617,VALID,19.8602,VALID,3,VALID,0.238567,
2004-12-04, 02:33:00,VALID,918.48,VALID,0,VALID,100,VALID,-0.0509425,VALID,19.8731,VALID,341,VALID,0.305246,
2004-12-04, 02:34:00,VALID,918.478,VALID,0,VALID,100,VALID,-0.0509425,VALID,19.8858,VALID,344,VALID,0.40554,
2004-12-04, 02:35:00,VALID,918.472,VALID,0,VALID,100,VALID,-0.0169808,VALID,19.8861,VALID,326,VALID,0.110518,
2004-12-04, 02:36:00,VALID,918.462,VALID,0,VALID,100,VALID,-0.0679233,VALID,19.8955,VALID,328,VALID,0.138889,
2004-12-04, 02:37:01,VALID,918.447,VALID,0,VALID,100,VALID,-0.0849042,VALID,19.9025,VALID,346,VALID,0.293478,
2004-12-04, 02:38:01,VALID,918.448,VALID,0,VALID,100,VALID,-0.0679233,VALID,19.902,VALID,355,VALID,0.233445,
2004-12-04, 02:39:00,VALID,918.448,VALID,0,VALID,100,VALID,-0.0679233,VALID,19.9216,VALID,355,VALID,0,
2004-12-04, 02:40:01,VALID,918.447,VALID,0,VALID,100,VALID,-0.0509425,VALID,19.9211,VALID,355,VALID,0,
2004-12-04, 02:41:00,VALID,918.45,VALID,0,VALID,100,VALID,-0.0509425,VALID,19.9278,VALID,355,VALID,0,
2004-12-04, 02:42:00,VALID,918.456,VALID,0,VALID,100,VALID,-0.0509425,VALID,19.9089,VALID,355,VALID,0,
2004-12-04, 02:43:01,VALID,918.44,VALID,0,VALID,100,VALID,-0.0509425,VALID,19.8893,VALID,355,VALID,0.00729167,
2004-12-04, 02:44:01,VALID,918.447,VALID,0,VALID,100,VALID,-0.0679233,VALID,19.899,VALID,7,VALID,0.199132,
2004-12-04, 02:45:00,VALID,918.444,VALID,0,VALID,100,VALID,-0.0849042,VALID,19.9025,VALID,77,VALID,0.550781,
2004-12-04, 02:46:00,VALID,918.449,VALID,0,VALID,100,VALID,-0.0509425,VALID,19.8955,VALID,19,VALID,0.47532,
2004-12-04, 02:47:00,VALID,918.456,VALID,0,VALID,100,VALID,-0.0679233,VALID,19.9154,VALID,22,VALID,0.184338,
2004-12-04, 02:48:00,VALID,918.443,VALID,0,VALID,100,VALID,-0.0849042,VALID,19.9087,VALID,21,VALID,0.478516,
2004-12-04, 02:49:01,VALID,918.451,VALID,0,VALID,100,VALID,-0.0679233,VALID,19.9286,VALID,17,VALID,0.64169,
2004-12-04, 02:50:00,VALID,918.438,VALID,0,VALID,100,VALID,-0.0169808,VALID,19.9243,VALID,17,VALID,0.299543,
2004-12-04, 02:51:00,VALID,918.429,VALID,0,VALID,100,VALID,-0.0679233,VALID,19.9054,VALID,15,VALID,0.122582,
2004-12-04, 02:52:00,VALID,918.413,VALID,0,VALID,100,VALID,-0.0679233,VALID,19.8828,VALID,22,VALID,0.45149,
2004-12-04, 02:53:01,VALID,918.416,VALID,0,VALID,100,VALID,-0.0679233,VALID,19.8831,VALID,344,VALID,0.980978,
2004-12-04, 02:54:01,VALID,918.398,VALID,0,VALID,100,VALID,-0.0849042,VALID,19.8697,VALID,353,VALID,0.618253,
2004-12-04, 02:55:01,VALID,918.387,VALID,0,VALID,100,VALID,-0.0339617,VALID,19.8605,VALID,342,VALID,0.0687145,
2004-12-04, 02:56:00,VALID,918.37,VALID,0,VALID,100,VALID,-0.0849042,VALID,19.8505,VALID,346,VALID,0.242374,
2004-12-04, 02:57:00,VALID,918.35,VALID,0,VALID,100,VALID,-0.0509425,VALID,19.8769,VALID,6,VALID,0.506669,
2004-12-04, 02:58:00,VALID,918.335,VALID,0,VALID,100,VALID,-0.0679233,VALID,19.8796,VALID,11,VALID,1.06079,
2004-12-04, 02:59:01,VALID,918.315,VALID,0,VALID,100,VALID,-0.0509425,VALID,19.8761,VALID,11,VALID,1.27237,
2004-12-04, 03:00:00,VALID,918.293,VALID,0,VALID,100,VALID,-0.0849042,VALID,19.8411,VALID,7,VALID,1.60067,
2004-12-04, 03:01:00,VALID,918.283,VALID,0,VALID,100,VALID,-0.101885,VALID,19.8182,VALID,17,VALID,1.6306,
2004-12-04, 03:02:00,VALID,918.295,VALID,0,VALID,100,VALID,-0.0509425,VALID,19.815,VALID,334,VALID,1.02363,
2004-12-04, 03:03:01,VALID,918.313,VALID,0,VALID,100,VALID,-0.0169808,VALID,19.7827,VALID,9,VALID,0.367001,
2004-12-04, 03:04:01,VALID,918.319,VALID,0,VALID,100,VALID,-0.0679233,VALID,19.7763,VALID,13,VALID,0.218936,
2004-12-04, 03:05:00,VALID,918.319,VALID,0,VALID,100,VALID,-0.0509425,VALID,19.7894,VALID,19,VALID,0.801172,
2004-12-04, 03:06:00,VALID,918.309,VALID,0,VALID,100,VALID,-0.0339617,VALID,19.815,VALID,1,VALID,0.751906,
2004-12-04, 03:07:01,VALID,918.312,VALID,0,VALID,100,VALID,-0.0849042,VALID,19.8187,VALID,2,VALID,0.774709,
2004-12-04, 03:08:00,VALID,918.301,VALID,0,VALID,100,VALID,-0.0679233,VALID,19.8182,VALID,360,VALID,0.204268,
2004-12-04, 03:09:01,VALID,918.306,VALID,0,VALID,100,VALID,-0.0509425,VALID,19.8344,VALID,2,VALID,0.258358,
2004-12-04, 03:10:00,VALID,918.309,VALID,0,VALID,100,VALID,-0.0849042,VALID,19.8379,VALID,6,VALID,0.0234375,
2004-12-04, 03:11:01,VALID,918.292,VALID,0,VALID,100,VALID,-0.0509425,VALID,19.8312,VALID,40,VALID,0.219494,
2004-12-04, 03:12:01,VALID,918.281,VALID,0,VALID,100,VALID,-0.0679233,VALID,19.8346,VALID,186,VALID,0.641955,
2004-12-04, 03:13:00,VALID,918.28,VALID,0,VALID,100,VALID,0,VALID,19.8148,VALID,227,VALID,0.505394,
2004-12-04, 03:14:00,VALID,918.264,VALID,0,VALID,100,VALID,-0.0509425,VALID,19.8118,VALID,231,VALID,0.0826671,
2004-12-04, 03:15:00,VALID,918.272,VALID,0,VALID,100,VALID,-0.0509425,VALID,19.8212,VALID,265,VALID,0.165516,
2004-12-04, 03:16:01,VALID,918.265,VALID,0,VALID,100,VALID,-0.0339617,VALID,19.8704,VALID,11,VALID,0.294829,
2004-12-04, 03:17:00,VALID,918.245,VALID,0,VALID,100,VALID,-0.0849042,VALID,19.8995,VALID,18,VALID,0.773793,
2004-12-04, 03:18:01,VALID,918.229,VALID,0,VALID,100,VALID,-0.0339617,VALID,19.8833,VALID,15,VALID,1.47983,
2004-12-04, 03:19:00,VALID,918.221,VALID,0,VALID,100,VALID,-0.0849042,VALID,19.8413,VALID,9,VALID,1.58872,
2004-12-04, 03:20:00,VALID,918.216,VALID,0,VALID,100,VALID,-0.0339617,VALID,19.8153,VALID,13,VALID,1.02077,
2004-12-04, 03:21:00,VALID,918.21,VALID,0,VALID,100,VALID,-0.0509425,VALID,19.7924,VALID,20,VALID,0.974609,
2004-12-04, 03:22:01,VALID,918.188,VALID,0,VALID,100,VALID,-0.0339617,VALID,19.8158,VALID,18,VALID,0.884859,
2004-12-04, 03:23:00,VALID,918.178,VALID,0,VALID,100,VALID,-0.0679233,VALID,19.822,VALID,10,VALID,0.557776,
2004-12-04, 03:24:00,VALID,918.173,VALID,0,VALID,100,VALID,-0.0849042,VALID,19.815,VALID,4,VALID,0.245536,
2004-12-04, 03:25:00,VALID,918.18,VALID,0,VALID,100,VALID,-0.0339617,VALID,19.8215,VALID,100,VALID,0.521484,
2004-12-04, 03:26:00,VALID,918.19,VALID,0,VALID,100,VALID,-0.0849042,VALID,19.809,VALID,196,VALID,0.0386719,
2004-12-04, 03:27:00,VALID,918.186,VALID,0,VALID,100,VALID,-0.101885,VALID,19.8287,VALID,196,VALID,0,
2004-12-04, 03:28:01,VALID,918.184,VALID,0,VALID,100,VALID,-0.0339617,VALID,19.815,VALID,196,VALID,0.119855,
2004-12-04, 03:29:01,VALID,918.184,VALID,0,VALID,100,VALID,-0.0509425,VALID,19.812,VALID,196,VALID,0.145064,
2004-12-04, 03:30:01,VALID,918.194,VALID,0,VALID,100,VALID,-0.101885,VALID,19.8021,VALID,230,VALID,0.388086,
2004-12-04, 03:31:00,VALID,918.201,VALID,0,VALID,100,VALID,-0.0679233,VALID,19.8416,VALID,228,VALID,0.068859,
2004-12-04, 03:32:00,VALID,918.207,VALID,0,VALID,100,VALID,-0.0169808,VALID,19.8436,VALID,228,VALID,0.00685976,
2004-12-04, 03:33:01,VALID,918.201,VALID,0,VALID,100,VALID,0.0339617,VALID,19.8562,VALID,275,VALID,0.258557,
2004-12-04, 03:34:00,VALID,918.202,VALID,0,VALID,100,VALID,0.0339617,VALID,19.8495,VALID,5,VALID,0.569169,
2004-12-04, 03:35:00,VALID,918.177,VALID,0,VALID,100,VALID,0.0169808,VALID,19.8428,VALID,2,VALID,0.266369,
2004-12-04, 03:36:01,VALID,918.171,VALID,0,VALID,100,VALID,0,VALID,19.8401,VALID,2,VALID,0.411156,
2004-12-04, 03:37:01,VALID,918.145,VALID,0,VALID,100,VALID,0.0169808,VALID,19.8428,VALID,3,VALID,0.434152,